SCP
0 0 0 0 0 0 0 0 0 0 0 0 0 0 0 0 0 0 0 0 0 0 0 0 0 0 0 0 0 0 0 0
0 0 0 0 0 0 0 0 0 0 0 1 1 0 0 0 0 0 0 1 0 0 0 0 0 0 0 0 0 0 0 0
0 0 0 0 0 0 0 0 0 0 0 0 0 1 1 0 0 0 0 1 1 1 1 0 0 0 0 0 0 0 0 0
0 0 0 0 0 0 0 0 0 0 0 0 0 2 1 1 0 0 0 1 1 1 1 1 1 1 0 1 1 0 0 0
0 0 0 0 0 0 0 -0 0 0 0 0 0 0 0 1 1 1 0 1 1 1 1 1 1 1 1 1 1 1 1 0
0 0 0 0 0 0 0 0 0 0 0 0 0 0 0 0 1 1 2 1 1 1 1 2 2 2 2 1 1 1 1 1
0 0 0 0 0 0 0 0 0 0 0 0 0 0 0 0 0 0 1 1 1 1 1 2 2 2 2 3 2 2 2 1
0 0 0 0 0 0 0 0 0 0 0 0 0 0 0 0 0 0 0 0 1 1 1 2 2 2 2 3 3 3 2 3
0 0 0 0 0 0 0 0 0 0 0 0 -0 0 0 0 0 0 0 0 0 0 0 1 1 2 3 3 3 3 3 3
0 0 0 0 0 0 0 0 0 0 0 -0 0 -0 0 0 0 0 0 0 0 0 0 0 0 1 2 2 3 3 2 3
0 0 0 0 0 0 0 0 0 0 0 0 0 -0 -0 -0 0 0 0 0 0 0 0 0 0 0 1 1 2 2 3 3
0 0 0 0 0 0 0 0 0 -0 -0 0 -0 -0 -0 -0 -0 0 0 0 0 0 0 0 0 0 0 0 1 2 1 3
0 0 0 0 0 0 0 0 0 0 -0 -0 -0 -0 0 -0 -0 -0 -0 0 0 0 0 0 0 0 0 0 0 1 1 1
0 0 0 0 0 0 0 0 0 0 0 -0 -0 -0 -0 0 0 -0 -0 -0 -0 0 0 0 0 0 0 0 0 0 0 2
0 0 0 0 0 0 0 0 0 0 0 0 -0 -0 -0 -0 -0 -0 -0 -0 -0 -0 0 0 0 0 0 0 0 0 0 0
0 0 0 0 0 0 0 0 0 0 0 0 0 0 -0 -0 0 0 -0 -0 0 -0 -0 -0 0 0 0 0 -0 0 0 0
0 0 0 0 0 0 0 0 0 0 0 0 0 0 0 -0 -0 0 0 0 0 0 0 -0 -0 -0 0 -0 0 0 0 0
0 0 0 0 0 0 0 0 0 0 0 0 0 0 0 0 -0 -0 0 0 0 0 0 0 -0 0 -0 -0 -0 0 -0 0
0 0 0 0 0 0 0 0 0 0 0 0 0 0 0 0 0 0 0 0 0 0 0 0 0 0 0 -0 -0 -0 -0 0
Wind_Speed_500mb
50 53 59 56 52 42 20 8 20 35 39 44 48 50 52 51 53 53 56 56 60 68 64 57 56 51 53 53 52 52 52 49
50 53 59 65 68 61 53 34 12 10 33 45 53 54 55 56 57 60 62 65 63 68 73 74 71 63 62 59 60 60 53 52
50 54 57 62 66 66 63 57 42 22 22 30 52 57 58 59 60 62 67 67 71 72 75 77 76 76 70 71 63 63 58 56
45 52 58 60 63 65 64 67 64 46 31 29 32 48 62 66 62 62 64 72 80 80 76 78 81 77 80 82 81 74 70 57
39 43 49 54 56 56 58 63 72 81 63 29 38 37 45 58 63 65 63 65 73 83 82 82 83 85 89 90 89 85 83 74
35 39 41 45 49 48 51 53 65 76 82 77 46 40 43 53 64 64 64 64 66 74 80 82 86 87 89 88 86 81 85 88
33 34 36 42 44 48 52 54 55 64 68 78 86 67 45 46 55 48 54 55 66 71 77 83 86 91 90 93 89 90 92 93
34 37 40 43 47 48 49 53 57 60 62 61 66 78 82 69 48 32 51 55 59 58 70 77 86 92 95 91 91 92 99 94
31 36 39 42 45 46 49 52 52 58 64 61 58 58 66 76 76 62 30 38 46 57 57 66 78 84 88 94 93 94 95 100
26 30 34 38 41 45 47 49 52 55 60 66 61 56 61 60 68 70 66 50 40 55 64 65 61 79 85 88 93 96 95 97
24 28 32 36 38 41 44 48 51 51 56 57 62 63 55 58 59 62 63 66 65 44 37 52 69 72 72 86 91 95 95 96
21 25 29 33 37 41 45 47 51 52 52 55 59 61 63 63 57 57 61 63 61 63 58 46 27 47 71 72 92 92 92 93
22 26 29 34 39 44 46 47 48 48 51 53 54 59 64 64 61 65 64 62 63 57 62 61 54 34 41 46 58 100 97 95
23 26 31 36 41 44 46 45 45 47 48 49 51 58 62 61 63 72 66 66 62 63 62 64 61 53 51 54 46 53 60 103
22 27 33 37 40 43 43 43 44 46 48 50 50 52 55 59 62 58 66 70 69 60 68 68 72 60 61 58 69 57 50 47
23 29 36 39 40 40 40 42 46 47 49 51 53 56 56 58 65 77 72 63 64 71 70 75 71 77 52 63 71 68 71 59
25 30 34 37 39 39 41 44 45 46 49 50 52 54 59 61 67 66 70 81 67 63 66 77 72 74 70 72 81 77 68 62
27 28 32 35 37 39 41 43 44 46 48 50 56 59 60 60 63 65 70 74 70 66 60 63 73 69 77 82 83 86 84 72
25 27 32 34 36 37 41 43 45 46 47 51 53 56 60 63 65 67 70 70 75 78 74 68 63 61 65 84 82 73 86 87
Wind_Direction_500mb
43 39 35 33 30 26 35 16 250 255 248 247 246 245 245 239 237 236 237 237 236 227 226 231 229 231 230 232 232 235 235 237
44 41 37 36 35 31 23 8 326 285 258 254 251 249 249 250 245 240 237 236 237 239 231 232 229 228 230 232 233 232 234 240
41 39 37 35 35 34 29 22 8 326 313 285 263 256 255 255 255 251 241 241 240 240 244 230 234 232 230 230 229 232 239 232
40 38 37 37 36 34 31 29 23 4 295 276 268 261 260 258 254 254 255 239 241 243 239 245 234 234 234 239 236 231 230 236
38 35 36 33 34 34 35 31 29 26 12 322 274 292 278 262 258 256 258 257 252 247 246 240 245 234 238 239 246 243 238 234
34 32 32 30 28 26 24 24 22 23 22 20 359 297 281 259 272 265 263 257 253 251 247 246 241 244 237 241 236 242 241 242
37 32 26 25 20 22 19 20 17 15 16 13 16 14 342 298 261 266 267 267 257 252 250 248 247 245 243 239 241 236 242 244
32 29 26 21 20 16 14 11 13 11 13 7 8 9 11 9 351 286 276 265 268 265 253 250 247 248 249 245 240 241 239 237
26 21 18 17 15 12 11 9 0 0 359 8 3 357 360 1 2 358 345 289 269 257 254 251 250 250 250 251 245 243 240 241
18 15 14 11 10 7 7 5 5 357 349 348 359 352 353 353 348 354 353 0 338 268 256 253 253 251 254 256 249 244 241 240
3 3 5 5 4 1 1 358 358 355 355 347 343 352 347 344 344 343 341 347 353 346 290 265 254 253 255 256 256 250 244 241
354 358 357 356 356 356 355 352 351 349 351 349 345 336 340 341 337 336 333 337 343 346 347 343 294 261 254 259 256 253 246 243
345 350 353 353 352 350 350 348 348 345 346 343 345 351 342 331 335 329 329 328 333 329 340 343 339 333 270 289 262 255 251 244
337 345 348 346 345 345 346 345 346 344 343 342 342 341 346 344 338 331 327 320 319 322 326 330 337 344 333 290 314 280 264 249
335 338 340 342 342 342 344 344 345 343 342 340 340 337 335 333 330 337 328 325 320 309 313 320 327 335 331 327 325 322 313 296
331 334 335 337 340 342 342 340 340 340 339 339 338 335 333 333 333 335 333 331 326 311 301 308 307 312 327 315 317 328 326 314
328 331 333 336 338 339 338 336 337 337 335 335 334 333 332 332 333 328 324 327 324 322 312 300 296 300 299 310 310 313 321 319
325 329 332 334 336 334 333 334 334 332 332 331 332 333 332 331 328 325 323 317 314 316 315 306 298 294 294 293 290 308 308 316
322 327 331 332 332 331 330 331 332 331 332 331 331 331 328 327 326 323 320 315 316 321 312 303 299 294 299 285 282 284 289 300
Wind_Speed_850mb
50 53 59 56 52 42 20 8 20 35 39 44 48 50 52 51 53 53 56 56 60 68 64 57 56 51 53 53 52 52 52 49
50 53 59 65 68 61 53 34 12 10 33 45 53 54 55 56 57 60 62 65 63 68 73 74 71 63 62 59 60 60 53 52
50 54 57 62 66 66 63 57 42 22 22 30 52 57 58 59 60 62 67 67 71 72 75 77 76 76 70 71 63 63 58 56
45 52 58 60 63 65 64 67 64 46 31 29 32 48 62 66 62 62 64 72 80 80 76 78 81 77 80 82 81 74 70 57
39 43 49 54 56 56 58 63 72 81 63 29 38 37 45 58 63 65 63 65 73 83 82 82 83 85 89 90 89 85 83 74
35 39 41 45 49 48 51 53 65 76 82 77 46 40 43 53 64 64 64 64 66 74 80 82 86 87 89 88 86 81 85 88
33 34 36 42 44 48 52 54 55 64 68 78 86 67 45 46 55 48 54 55 66 71 77 83 86 91 90 93 89 90 92 93
34 37 40 43 47 48 49 53 57 60 62 61 66 78 82 69 48 32 51 55 59 58 70 77 86 92 95 91 91 92 99 94
31 36 39 42 45 46 49 52 52 58 64 61 58 58 66 76 76 62 30 38 46 57 57 66 78 84 88 94 93 94 95 100
26 30 34 38 41 45 47 49 52 55 60 66 61 56 61 60 68 70 66 50 40 55 64 65 61 79 85 88 93 96 95 97
24 28 32 36 38 41 44 48 51 51 56 57 62 63 55 58 59 62 63 66 65 44 37 52 69 72 72 86 91 95 95 96
21 25 29 33 37 41 45 47 51 52 52 55 59 61 63 63 57 57 61 63 61 63 58 46 27 47 71 72 92 92 92 93
22 26 29 34 39 44 46 47 48 48 51 53 54 59 64 64 61 65 64 62 63 57 62 61 54 34 41 46 58 100 97 95
23 26 31 36 41 44 46 45 45 47 48 49 51 58 62 61 63 72 66 66 62 63 62 64 61 53 51 54 46 53 60 103
22 27 33 37 40 43 43 43 44 46 48 50 50 52 55 59 62 58 66 70 69 60 68 68 72 60 61 58 69 57 50 47
23 29 36 39 40 40 40 42 46 47 49 51 53 56 56 58 65 77 72 63 64 71 70 75 71 77 52 63 71 68 71 59
25 30 34 37 39 39 41 44 45 46 49 50 52 54 59 61 67 66 70 81 67 63 66 77 72 74 70 72 81 77 68 62
27 28 32 35 37 39 41 43 44 46 48 50 56 59 60 60 63 65 70 74 70 66 60 63 73 69 77 82 83 86 84 72
25 27 32 34 36 37 41 43 45 46 47 51 53 56 60 63 65 67 70 70 75 78 74 68 63 61 65 84 82 73 86 87
Wind_Direction_850mb
43 39 35 33 30 26 35 16 250 255 248 247 246 245 245 239 237 236 237 237 236 227 226 231 229 231 230 232 232 235 235 237
44 41 37 36 35 31 23 8 326 285 258 254 251 249 249 250 245 240 237 236 237 239 231 232 229 228 230 232 233 232 234 240
41 39 37 35 35 34 29 22 8 326 313 285 263 256 255 255 255 251 241 241 240 240 244 230 234 232 230 230 229 232 239 232
40 38 37 37 36 34 31 29 23 4 295 276 268 261 260 258 254 254 255 239 241 243 239 245 234 234 234 239 236 231 230 236
38 35 36 33 34 34 35 31 29 26 12 322 274 292 278 262 258 256 258 257 252 247 246 240 245 234 238 239 246 243 238 234
34 32 32 30 28 26 24 24 22 23 22 20 359 297 281 259 272 265 263 257 253 251 247 246 241 244 237 241 236 242 241 242
37 32 26 25 20 22 19 20 17 15 16 13 16 14 342 298 261 266 267 267 257 252 250 248 247 245 243 239 241 236 242 244
32 29 26 21 20 16 14 11 13 11 13 7 8 9 11 9 351 286 276 265 268 265 253 250 247 248 249 245 240 241 239 237
26 21 18 17 15 12 11 9 0 0 359 8 3 357 360 1 2 358 345 289 269 257 254 251 250 250 250 251 245 243 240 241
18 15 14 11 10 7 7 5 5 357 349 348 359 352 353 353 348 354 353 0 338 268 256 253 253 251 254 256 249 244 241 240
3 3 5 5 4 1 1 358 358 355 355 347 343 352 347 344 344 343 341 347 353 346 290 265 254 253 255 256 256 250 244 241
354 358 357 356 356 356 355 352 351 349 351 349 345 336 340 341 337 336 333 337 343 346 347 343 294 261 254 259 256 253 246 243
345 350 353 353 352 350 350 348 348 345 346 343 345 351 342 331 335 329 329 328 333 329 340 343 339 333 270 289 262 255 251 244
337 345 348 346 345 345 346 345 346 344 343 342 342 341 346 344 338 331 327 320 319 322 326 330 337 344 333 290 314 280 264 249
335 338 340 342 342 342 344 344 345 343 342 340 340 337 335 333 330 337 328 325 320 309 313 320 327 335 331 327 325 322 313 296
331 334 335 337 340 342 342 340 340 340 339 339 338 335 333 333 333 335 333 331 326 311 301 308 307 312 327 315 317 328 326 314
328 331 333 336 338 339 338 336 337 337 335 335 334 333 332 332 333 328 324 327 324 322 312 300 296 300 299 310 310 313 321 319
325 329 332 334 336 334 333 334 334 332 332 331 332 333 332 331 328 325 323 317 314 316 315 306 298 294 294 293 290 308 308 316
322 327 331 332 332 331 330 331 332 331 332 331 331 331 328 327 326 323 320 315 316 321 312 303 299 294 299 285 282 284 289 300